Location: Unspecified
(0.0000°N, 0.0000°E)
Time: 13:35:45
(UTC+00:00)

Explorer 11/Cluster Stage 4 - Pass Details

Date: 23 February 2024
Orbit: 465 x 1219 km, 28.8° (Epoch: 24 April)

Event Time Altitude Azimuth Distance (km) Brightness Sun altitude
Rises 21:38:26 0° 241° (WSW) 3,790 10.7 -50.2°
Reaches altitude 10° 21:41:01 10° 241° (WSW) 2,925 9.9 -50.9°
Enters shadow 21:41:54 14° 241° (WSW) 2,634 9.6 -51.1°
